Member area
Imprimable
Villers-la-Ville, 02/10/2021, BEL - Trail de l'Abbaye
List of reports > 31.42km - Result
Search: Page: [1]
141 Entries
 
Complains are not accepted anymore. Results are final.
Category
PosNrNameAgeNATLeagueTeamRealTimeTkmMoy.PlaceNameScrCity
1.720VAN LOKEREN STIJN41BEL2:09:042:09:064:07 14.601hom1SINT-PAUWELS
2.363KAYENBERGH STIJN26BEL2:14:352:14:394:18 14.002hom2VOSSEM
3.427THIRY SAMUEL34BEL2:18:052:18:074:24 13.653hom3CHASTRE
4.392DELATTRE LOUIS23BEL2:20:262:20:294:29 13.424hom4ROISIN
5.419DALAIDEN QUENTIN28BEL2:22:092:22:144:32 13.265hom5OTTIGNIES
6.319VANDEWALLE VIRGILE29BEL2:23:092:23:124:34 13.176hom6IXELLES
7.223DESSY VALENTIN30BEL2:25:282:25:314:38 12.967hom7ARSIMONT
8.308MORTON TIMOTHY47BEL2:25:472:25:564:39 12.928hom8SART-DAMES-AVELINES
9.463REYNTENS GABRIEL36BEL2:27:372:27:464:43 12.769hom9MOLENBEEK SAINT JEAN
10.263WENZEL SYLVAIN49FRA2:30:252:30:354:48 12.5210hom10REBREUVE-RANCHICOURT
11.357SCHOUMACKERS BENOÎT47BEL2:30:442:30:474:48 12.5011hom11HUY
12.434DETOURNAIJ OLIVIER36BEL2:32:172:32:224:51 12.3712hom12BRUXELLES
13.435BROUYAUX MATTHIEU34BEL2:32:382:32:444:52 12.3413hom13OTTIGNIES
14.793DU BOIS PIERRE-YVES29BEL2:33:322:33:454:54 12.2614hom14NAMUR
15.462POGGI ELIO33BEL2:33:492:33:534:54 12.2515hom15OTTIGNIES
16.296RIGAULT MATHIEU37FRA2:33:472:34:014:55 12.2416hom16NIVELLES
17.288VERBESSELT KEVIN41BEL2:34:262:34:314:56 12.2017hom17BRAINE-LE-COMTE
18.234GIVRON RÉGIS31BEL2:36:002:36:044:59 12.0818hom18MARCINELLE
19.438LECOMTE CLÉMENT27BEL2:36:402:36:435:00 12.0319hom19MONS
20.301DUMAS BASTIEN25FRA2:36:522:37:055:00 12.0020hom20LOUVAIN-LA-NEUVE
21.314DEGREZ FRANÇOIS36BEL2:37:112:37:135:01 11.9921hom21NAMUR
22.794EVAN NOEL18BEL2:39:282:39:315:05 11.8222hom22NISMES
23.217VERBRUGGEN YVES34BEL2:39:282:39:315:05 11.8223hom23NISMES
24.716JASSOGNE YONEC42BEL2:40:292:40:335:07 11.7424hom24CORBAIS
25.712VANEGHEM BERTRAND51BEL2:40:532:41:025:08 11.7125hom25DION-VALMONT
26.684COLLIGNON THOMAS35BEL2:41:312:41:395:09 11.6626hom26TOURINNES-ST-LAMBERT
27.326SCHULLER GRÉGORY34BEL2:42:022:42:165:10 11.6227hom27WEMMEL
28.380VANDENTEMPEL OLIVIER47BEL2:42:092:42:225:11 11.6128hom28WATERMAEL-BOITSFORT
29.219VERBIST DIMITRI38BEL2:46:062:46:095:18 11.3529hom29TESSENDERLO
30.687DURVIAUX ANTOINE27BEL2:46:022:46:115:18 11.3430hom30LOUVAIN LA NEUVE
31.446CAPOUET MATHIEU40BEL2:46:312:46:395:19 11.3131hom31FRASNES LEZ GOSSELIES (BE
32.365BUTAYE OLIVIER40BEL2:47:022:47:095:20 11.2832hom32BAULERS
33.439DELGRANGE MAXIME27FRA2:47:202:47:235:20 11.2633hom33VILLERS LA VILLE
34.415LAMAUDIÈRE STÉPHANE49FRA2:48:002:48:135:22 11.2134hom34IXELLES
35.362ROLAND RAPHAËL40BEL2:48:222:48:295:22 11.1935hom35BRAINE-LE-CHÂTEAU
36.267MARCHAND PIERRE40BEL2:49:182:49:265:24 11.1336hom36WAUTHIER-BRAINE
37.366NR 366 XXX2:49:182:49:265:24 11.1337hom37
38.327LELIÈVRE THIERRY49BEL2:50:162:50:305:26 11.0638hom38JETTE
39.505LECHIEN LIONEL38BEL2:50:322:50:505:27 11.0439hom39TERVUREN
40.292DE BLANDER GEERT57BEL2:51:182:51:315:28 10.9940hom40SCHELDEWINDEKE
41.282VERSTRAET FLORENT21FRA2:51:222:51:315:28 10.9941hom41HOUDAIN
42.364WAUCAMPT DENIS43BEL2:52:072:52:095:29 10.9542hom42HUMBEEK
43.283URBAIN BAUDOUIN50BEL2:53:192:53:225:32 10.8743hom43GOUY-LEZ-PIÉTON
44.371BUCHELOT NICOLAS25BEL2:57:392:57:515:40 10.6044hom45RIXENSART
45.271VANDENPLAS KEVIN34BEL2:58:312:58:395:42 10.5545hom46TILLY
46.278WILLEMS GUNTER42BEL2:58:312:58:455:42 10.5546hom47JAUCHE
47.211FRANCHE FLORENTIN27BEL2:59:062:59:105:43 10.5247hom48ETTERBEEK
48.280TURELINCKX KURT41BEL2:59:222:59:375:43 10.5048hom49BETEKOM
49.207EL KHOURY GEBRINE63BEL2:49:182:59:385:44 10.5049hom50WOLUWE SAINT ÉTIENNE
50.443LORY KESTENS28BEL3:00:003:00:035:44 10.4750hom51BRAINE-LE-COMTE
51.437HENRY VINCENT46BEL3:00:563:01:045:46 10.4151hom52CHASTRE
52.402COCQUEREAUX ERIK47BEL3:00:453:01:045:46 10.4152hom53RHODE-SAINT-GENESE
53.225LAPY FRANÇOIS40BEL3:01:463:01:555:48 10.3653hom54LIMELETTE
54.449CALCAGNILE LEVI34BEL3:01:593:02:135:48 10.3554hom55SINT-LAMBRECHTS-HERK
55.431JONARD FRANÇOIS-DAVID43BEL3:03:433:03:505:52 10.2655hom56COURT SAINT ETIENNE
56.293MOERMAN JONAS47BEL3:03:573:04:225:53 10.2356hom57LLN
57.382GOBBE PHILIPPE56BEL3:04:583:05:085:54 10.1857hom58MELLET
58.313COUPIN PATRICK49BEL3:09:353:09:516:03 9.9358hom59ZAVENTEM
59.359FOCANT CLAUDY30BEL3:10:203:10:266:04 9.9059hom60AUDERGHEM
60.487RASSEAUX DAMIEN41BEL3:10:023:10:296:04 9.9060hom61IXELLES
61.790MAGIS ALVARIC33BEL3:10:243:10:376:04 9.8961hom62VILLERS-LA-VILLE
62.369LARACHI SOFIAN31BEL3:10:263:10:376:04 9.8962hom63WOLUWE SAINT-LAMBERT
63.789MORREN JÉRÉMY31BEL3:10:263:10:376:04 9.8963hom64LUSTIN
64.698DESCAMPE ARNAUD33BEL3:10:263:10:376:04 9.8964hom65WALHAIN
65.368DEMOLDER YOANN31BEL3:10:253:10:386:05 9.8965hom66LOUVAIN-LA-NEUVE
66.367BOULET ETIENNE40BEL3:11:473:11:546:07 9.8266hom67NIVELLES
67.753THENAERS PHILIP54BEL3:02:233:13:056:09 9.7667hom68AARTSELAAR
68.269MORIS LAURENT47BEL3:12:523:13:056:09 9.7668hom69BRUXELLES
69.701MAROT PHILIPPE44BEL3:13:313:13:396:10 9.7469hom70CHASTRE-VILLER.-BLANMONT
70.385GUERRERO DIEGO50ESP3:16:393:16:446:16 9.5870hom71BRAINE L’ALLEUD
71.298DELAERE CHRISTOPHE58BEL3:16:383:16:536:16 9.5871hom72BRUSSEL
72.257GIRAUD JULIAN26FRA3:17:443:17:506:18 9.5372hom73LOUPOIGNE
73.403ANTROPOVSKI VADIM24BEL3:17:503:18:026:19 9.5273hom74SOUVRET
74.309DEWAEL NICOLAS27BEL3:18:553:19:046:21 9.4774hom75CÉROUX-MOUSTY
75.679BORREMANS FRÉDÉRIC44BEL3:18:583:19:076:21 9.4775hom76CÉROUX MOUSTY
76.230BANCIELLA FERNANDO47ESP3:19:013:19:106:21 9.4776hom77ANTWERPEN
77.323HENNEBERT YANNICK51FRA3:19:173:19:226:21 9.4677hom78LEVAL
78.797BELLET STEPHANE49FRA3:19:263:19:436:22 9.4478hom79UCCLE
79.354FORGE KEVIN29BEL3:19:533:20:036:23 9.4279hom80HOUDENG-GOEGNIES
80.436VAN LANDUYT BENJAMIN46BEL3:20:473:21:106:25 9.3780hom83WONDELGEM
81.377VAN CAUTER STIJN26BEL3:21:193:21:406:26 9.3581hom84BRUSSELS
82.261GOFFINET DAVID33BEL3:21:353:21:546:26 9.3482hom85BRUXELLES
83.155VAN GOOL SANDER28BEL3:19:093:22:456:28 9.3083hom86ANTWERPEN
84.718THUNS ANTONIN35BEL3:24:103:24:256:31 9.2284hom87BRUXELLES
85.713GARCIA JOAQUIN52ESP3:24:483:24:536:32 9.2085hom90CHAUMONT GISTOUX
86.685CACHEUX JEAN-NOËL49BEL3:24:583:25:106:32 9.1986hom91UCCLE
87.420DECLERCQ PIERRE53BEL3:25:043:25:116:32 9.1987hom92SIVRY
88.417HOUSSIERE ANTOINE39BEL3:24:593:25:116:32 9.1988hom93BRUXELLES
89.214LEMOINE FABIAN40BEL3:25:173:25:306:33 9.1789hom95THUMAIDE
90.312LECOMTE OLIVIER36FRA3:25:293:25:336:33 9.1790hom96MONT-SAINT-GUIBERT
91.215DESQUESNES VINCENT49BEL3:25:533:26:116:34 9.1491hom97SAINT SERVAIS
92.788LEPOUTRE FREDERIC43BEL3:25:563:26:146:34 9.1492hom98OPHAIN
93.331CLERCQ BENJAMIN31BEL3:26:243:26:326:35 9.1393hom99GESVES
94.696LEROY DANIEL43BEL3:27:163:27:326:37 9.0894hom100LES BONS VILLERS
95.227BIBIAN MATHIEU37FRA3:27:323:27:526:37 9.0795hom101GEMBLOUX
96.697DECEUNINCK STEPHAN48BEL3:28:303:28:476:39 9.0396hom102REVES
97.273BAUDEAU JULIEN44BEL3:29:083:29:176:40 9.0197hom103GERPINNES
98.213MARCHAND MAXIME39BEL3:29:243:29:456:41 8.9998hom104GEMBLOUX
99.381LALIEU XAVIER38BEL3:29:263:29:486:41 8.9999hom105SCHAERBEEK
100.290VANBLAERE FREDERIC54BEL3:31:483:31:526:45 8.90100hom106BIERGES
101.311VAN REGENMORTEL STIJN43BEL3:33:413:33:536:49 8.81101hom108LINT
102.307DEHOUCK FRANCOIS38BEL3:33:463:33:586:49 8.81102hom109BRUXELLES
103.680MERCENIER BENOÎT45BEL3:33:433:34:076:49 8.80103hom110OTTIGNIES-LOUVAIN-LA-NEUV
104.798GOSSERIES LIONEL44BEL3:34:093:34:326:50 8.79104hom111LASNE
105.440GEORGERY PHILIPPE57BEL3:36:193:36:406:54 8.70105hom112VIEUX-GENAPPE
106.237THOMAS DENI55BEL3:37:253:37:486:56 8.66106hom113SENEFFE
107.703BISCOS DAVID48BEL3:37:533:37:576:57 8.65107hom114PERWEZ
108.266MATHIEU JACQUES54BEL3:39:403:39:577:01 8.57108hom116CERFONTAINE
109.424MARMIGNON ARY38BEL3:39:403:39:577:01 8.57109hom117SENZEILLE
110.444ROUCOURT LOUIS28BEL3:40:413:40:477:02 8.54110hom118GEMBLOUX
111.670CHEVALIER JEAN55BEL3:40:423:41:007:02 8.53111hom119PETIT-ROEULX-LEZ-NIVELLES
112.378LEPOUTRE VINCENT49BEL3:42:033:42:307:05 8.47112hom120KAIN
113.514VERBEEK JEAN-LUC67BEL3:45:023:45:237:11 8.36113hom121BOUSVAL
114.372BROUILLARD JULIEN29BEL3:45:283:45:487:12 8.35114hom122LEUZE EN HAINAUT
115.398MASURE JONATHAN34BEL3:45:313:45:507:12 8.35115hom123LA LOUVIÈRE
116.714LANDELOOS BERNARD48BEL3:45:463:45:537:12 8.35116hom124BIERBEEK
117.302PIRON JEREMY38BEL3:48:303:48:457:17 8.24117hom125PIETREBAIS
118.291GERICKE PHILIPPE44BEL3:48:333:48:477:17 8.24118hom126GREZ
119.262BROADY KEVIN33BEL3:48:573:49:257:19 8.22119hom127WOLUWE ST LAMBERT
120.329BAUFAY WALTER65BEL3:49:243:49:307:19 8.21120hom128TEMPLOUX
121.442JANSSENS RUDI54BEL3:49:413:49:557:20 8.20121hom129TERNAT
122.784VANDERBECQ CEDRIC39BEL3:50:013:50:217:20 8.18122hom130GRATY
123.210MATHOUX SÉBASTIEN42BEL3:50:023:50:227:20 8.18123hom131ENGHIEN
124.330BALBO LIVIO30BEL3:51:193:51:307:23 8.14124hom132MOULBAIX
125.512GOORIS VINCENT54BEL3:51:393:51:487:23 8.13125hom134MELIN
126.274MOMMENS GUY58BEL3:53:193:53:287:26 8.08126hom136BEERSE
127.678MUSEUR CHRIDTOPHE39BEL3:54:463:55:007:29 8.02127hom138UCCLE
128.776CARPANTIER JEAN-JACQUES66BEL3:57:363:57:547:35 7.92128hom140RIXENSART
129.405HOTAT MICHEL52BEL3:58:183:58:277:36 7.91129hom141MONT-SAINT-GUIBERT
130.361DECROM FLORENT31BEL3:58:523:58:597:37 7.89130hom142HOUDENG - AIMERIES
131.422SEMET JEAN-PAUL55BEL3:59:473:59:587:39 7.86131hom143GAURAIN RX
132.486SCHENA XAVIER45BEL4:00:234:00:507:40 7.83132hom144SART-DAMES-AVELINES
133.310SUTTELS KRISTOF40BEL4:02:214:02:407:44 7.77133hom145LEEFDAAL
134.792ROGIE TOM47BEL4:04:054:04:277:47 7.71134hom146MARKE
135.418WITTEVRONGEL KOEN57BEL4:08:054:08:317:55 7.59135hom148SPIERE
136.542GERARD CHRISTOPHE46BEL4:38:334:38:508:53 6.76136hom155COURT-SAINT-ETIENNE
137.465COLLE LUDOVIC40BEL5:17:175:17:3810:07 5.94137hom156SOIGNIES
DSQ386VANIERSCHOT PATRICK44BEL2:05:222:05:24homHASSELT
DSQ373LECOMTE CHRISTOPHE40BEL2:18:382:18:52homQUAREGNON
DSQ303PAULUS DAVID46BEL2:24:122:24:15homWAUDREZ
DNF258LEVEAU CORENTIN39BELhomWATERLOO
DNF: did not finish; DSQ: disqualified; Speed in km/h
Page: [1]